Renton, WA
on Tuesday, December 25, 2012

Tuesday
Previous Day Next Day
Daily Summary
 ActualAverage (KSEA)Record (KSEA)
Temperature
Mean Temperature °F 40°F  
Max Temperature 45°F 45°F 60°F (1980)
Min Temperature 37°F 35°F 24°F (1995)
Degree Days
Heating Degree Days 24 25  
Month to date heating degree days 610  
Since 1 July heating degree days 1793  
Cooling Degree Days 0 0  
Month to date cooling degree days 0  
Year to date cooling degree days 189  
Moisture
Dew Point 35°F   
Average Humidity 78    
Maximum Humidity 93    
Minimum Humidity 60    
Precipitation
Precipitation 0.46 in 0.17 in 1.06 in (1998)
Month to date precipitation 4.37  
Year to date precipitation 36.51  
Snow
Snow 0.00 in in 1.00 in (1965)
Month to date snowfall  
Since 1 July snowfall  
Snow Depth in   
Wind
Wind Speed 4 mph   
Max Wind Speed 15 mph   
Max Gust Speed 26 mph   
Visibility 9 miles   
Events Rain   

Key: T is trace of precipitation, MM is missing value
Source: NWS Daily Summary
Time(PST)TemperatureDew PointHumidity Pressure Visibility Wind DirectionWind SpeedGust SpeedPrecipitationEvents Conditions
12:53 AM 39.0°F 36.0°F 89% 30.04 in 10.0 miles Calm Calm - N/A   Clear
1:53 AM 37.9°F 35.1°F 89% 30.00 in 10.0 miles Calm Calm - N/A   Clear
2:53 AM 37.9°F 35.1°F 89% 29.97 in 10.0 miles Calm Calm - N/A   Clear
3:53 AM 37.9°F 35.1°F 89% 29.93 in 9.0 miles South 3.5 mph - N/A   Mostly Cloudy
4:53 AM 39.0°F 36.0°F 89% 29.88 in 10.0 miles Calm Calm - N/A   Overcast
5:53 AM 39.0°F 36.0°F 89% 29.85 in 10.0 miles Calm Calm - N/A   Overcast
6:53 AM 39.0°F 36.0°F 89% 29.82 in 8.0 miles Calm Calm - 0.00 in Rain Light Rain
7:53 AM 41.0°F 37.0°F 86% 29.78 in 10.0 miles Calm Calm - 0.00 in Rain Light Rain
8:36 AM 44.6°F 33.8°F 66% 29.75 in 10.0 miles ESE 9.2 mph 18.4 mph 0.00 in Rain Light Rain
8:53 AM 43.0°F 34.0°F 71% 29.75 in 7.0 miles ESE 6.9 mph 18.4 mph 0.02 in Rain Light Rain
9:36 AM 41.0°F 35.6°F 81% 29.73 in 4.0 miles East 10.4 mph 24.2 mph 0.10 in Rain Rain
9:53 AM 39.9°F 35.1°F 83% 29.73 in 4.0 miles ESE 10.4 mph 25.3 mph 0.13 in Rain Light Rain
10:53 AM 39.9°F 37.9°F 93% 29.72 in 3.0 miles East 13.8 mph 23.0 mph 0.12 in Rain Rain
11:53 AM 41.0°F 37.9°F 89% 29.69 in 5.0 miles ESE 15.0 mph 26.5 mph 0.09 in Rain Rain
12:53 PM 41.0°F 36.0°F 82% 29.69 in 5.0 miles East 15.0 mph 23.0 mph 0.08 in Rain Light Rain
1:53 PM 42.1°F 37.9°F 85% 29.68 in 10.0 miles ESE 10.4 mph 21.9 mph 0.00 in Rain Light Rain
2:53 PM 43.0°F 35.1°F 74% 29.69 in 10.0 miles ESE 9.2 mph - 0.00 in Rain Light Rain
3:53 PM 43.0°F 34.0°F 71% 29.68 in 10.0 miles East 6.9 mph - 0.00 in Rain Light Rain
4:53 PM 44.1°F 33.1°F 65% 29.69 in 10.0 miles Calm Calm - 0.00 in   Overcast
5:53 PM 44.1°F 32.0°F 63% 29.69 in 10.0 miles East 10.4 mph 18.4 mph 0.00 in   Overcast
6:53 PM 44.1°F 33.1°F 65% 29.68 in 10.0 miles East 11.5 mph 20.7 mph 0.01 in Rain Light Rain
7:53 PM 44.1°F 32.0°F 63% 29.68 in 10.0 miles East 4.6 mph - 0.00 in Rain Light Rain
8:53 PM 45.0°F 32.0°F 60% 29.69 in 10.0 miles Variable 3.5 mph - 0.00 in Rain Light Rain
9:53 PM 44.1°F 33.1°F 65% 29.70 in 10.0 miles South 5.8 mph - 0.01 in   Overcast
10:53 PM 44.1°F 33.1°F 65% 29.72 in 10.0 miles SSE 4.6 mph - 0.00 in   Overcast
11:53 PM 43.0°F 33.1°F 68% 29.71 in 10.0 miles South 3.5 mph - 0.00 in   Overcast
Moon Phase
Dec. 25 Dec. 28 Jan. 04 Jan. 11 Jan. 18
Sunrise:07:55 AM (PST) Moon Rise:02:37 PM (PST)12/25
Sunset:04:23 PM (PST) Moon Set:05:29 AM (PST)12/25

Copyright © 2014 The Weather Underground, Inc.